Weather in Buinichi

Belarus     53°51′04″N   30°15′48″E
temp.,
°C
wind,
m/s
gust,
m/s
humid.,
%
clouds,
%
prec.,
mm/h
press.,
hPa
HPBL,
m
15 april, thu
thu1500:00+8ne2285100 0.0 101630
03:00+9nne3485100 0.1 101581
06:00+8nne4796100 0.9 1014248
09:00+8nne51097100 5.4 1014386
12:00+10nne4791100 1.2 1013579
15:00+14ene4673100 2.6 1011971
18:00+12ene6108294 2.5 1011510
21:00+9nne5109493 5.8 1011329
16 april, fri
fri1600:00+8ese3694100 0.6 1011104
03:00+7e35935 0.6 101286
06:00+6ene369375 0.0 101296
09:00+10e6108419 0.3 1013557
12:00+12ese7106599 0.6 10141519
15:00+13ese6106374 0.9 10141481
18:00+13ese59655 0.6 10141181
21:00+8e36879 1.2 101696
17 april, sat
sat1700:00+7e35885 0.1 101784
03:00+6e34935 0.1 101883
06:00+5e33938 0.0 101960
09:00+9ene35785 0.0 1020387
12:00+13ene4660100 0.0 10201317
15:00+13ene6669100 0.7 1020941
18:00+11ne61083100 1.7 1020701
21:00+10nne41094100 5.5 1020502
18 april, sun
sun1800:00+10ne61381100 0.6 1019578
03:00+8ne7148595 0.6 1019487
06:00+7ne6138816 0.0 1020388
09:00+9ene697966 0.0 1020497
12:00+12ene6868100 0.0 10211129
15:00+13ene5767100 0.0 10211323
18:00+13ene59657 0.1 1022612
21:00+9ene387961 0.1 1023154
19 april, mon
mon1900:00+9ene2478100 0.0 102480
03:00+8ene2481100 0.1 1024152
06:00+7ene488211 0.0 1024252
09:00+9e611701 0.0 1024846
12:00+11e6861100 0.0 10241511
15:00+11e4762100 0.1 10231285
18:00+12e586293 0.0 10231152
21:00+8ene4127669 0.1 1023323